User: anonymous   Login
Location: Napa Soda Springs
(38.3907°N, 122.2794°W)
Time: 12:35:24
(UTC+00:00)
Language:

SL-14 R/B - Orbit

View from above orbital plane
View from above orbital plane
View from above satellite
View from above satellite

Ground track
Ground track

The orbit data is extracted from the following two-line orbital elements,

1 33505U 09003B   21018.71494813 -.00000174  00000-0 -12518-4 0  9992
2 33505  82.3926  18.0281 0025873   1.5531 358.5773 15.10003716658694
Epoch (UTC): 18 January 2021 17:09:31
Eccentricity: 0.0025873
inclination: 82.3926°
perigee height: 518 km
apogee height: 554 km
right ascension of ascending node: 18.0281°
argument of perigee: 1.5531°
revolutions per day: 15.10003716
mean anomaly at epoch: 358.5773°
orbit number at epoch: 65869

The dashed part of the orbit path shows where the satellite is in the earth's shadow,  

DLR